Stevensville, MD

9:20 AM EDT on August 23, 2017 (GMT -0400)
Stevensville

Weather History for KW29 - December, 2011

Change the Weather History Date:

Monday, December 5, 2011

  Actual Average (KESN) Record (KESN)
Temperature  
Mean Temperature 50 °F -  
Max Temperature 57 °F 51 °F 68 °F (1955)
Min Temperature 42 °F 31 °F 17 °F (1966)
Degree Days  
Heating Degree Days 16    
Moisture  
Dew Point 50 °F    
Average Humidity 97    
Maximum Humidity 100    
Minimum Humidity 77    
Precipitation  
Precipitation 0.00 in - - ()
Sea Level Pressure  
Sea Level Pressure 30.31 in    
Wind  
Wind Speed 3 mph (South)    
Max Wind Speed 10 mph    
Max Gust Speed -    
Visibility 5 miles    
Events      
Averages and records for this station are not official NWS values.
T = Trace of Precipitation, MM = Missing Value Source: NWS Daily Summary

Daily Weather History Graph

Daily Weather History Graph

Search for Another Location

Airport or City:

Trip Planner

Search our weather history database for the weather conditions in past years. The results will help you decide how hot, cold, wet, or windy it might be!

Date:

Astronomy

Dec. 05, 2011 Rise Set
Actual Time 7:08 AM EST 4:42 PM EST
Civil Twilight 6:39 AM EST 5:12 PM EST
Nautical Twilight 6:05 AM EST 5:45 PM EST
Astronomical Twilight 5:33 AM EST 6:18 PM EST
Moon 1:38 PM EST (12/5) 2:30 AM EST (12/5)
Length of Visible Light 10h 33m
Length of Day
9h 34m
Waxing Gibbous, 79% of the Moon is Illuminated
Dec 5
Waxing Gibbous
Dec 10
Full
Dec 17
Last Quarter
Dec 24
New
Jan 1
First Quarter

Hourly Weather History & Observations

Time (EST) Temp. Dew Point Humidity Pressure Visibility Wind Dir Wind Speed Gust Speed Precip Events Conditions
12:16 AM 42.8 °F 42.8 °F 100% 30.39 in 0.5 mi North - - N/A   Unknown
12:35 AM 44.6 °F 44.6 °F 100% 30.38 in 0.5 mi North - - N/A   Unknown
1:14 AM 46.4 °F 46.4 °F 100% 30.37 in 1.2 mi North - - N/A   Unknown
1:33 AM 46.4 °F 46.4 °F 100% 30.37 in 0.8 mi North - - N/A   Unknown
1:53 AM 44.6 °F 44.6 °F 100% 30.38 in 0.2 mi North - - N/A   Unknown
2:12 AM 44.6 °F 44.6 °F 100% 30.37 in 0.2 mi North - - N/A   Unknown
2:31 AM 44.6 °F 44.6 °F 100% 30.37 in 0.2 mi North - - N/A   Unknown
2:32 AM 44.6 °F 44.6 °F 100% 30.36 in 0.2 mi North - - N/A   Unknown
2:51 AM 42.8 °F 42.8 °F 100% 30.36 in 0.2 mi North - - N/A   Mostly Cloudy
3:10 AM 42.8 °F 42.8 °F 100% 30.36 in 0.8 mi North - - N/A   Overcast
3:30 AM 46.4 °F 46.4 °F 100% 30.35 in 0.8 mi North - - N/A   Overcast
3:49 AM 48.2 °F 48.2 °F 100% 30.34 in 0.2 mi North - - N/A   Overcast
4:08 AM 48.2 °F 48.2 °F 100% 30.34 in 0.2 mi North - - N/A   Overcast
4:28 AM 48.2 °F 48.2 °F 100% 30.34 in 0.2 mi North - - N/A   Overcast
4:47 AM 50.0 °F 50.0 °F 100% 30.34 in 0.2 mi North - - N/A   Overcast
5:06 AM 50.0 °F 50.0 °F 100% 30.33 in 0.2 mi North - - N/A   Overcast
5:26 AM 50.0 °F 50.0 °F 100% 30.34 in 0.2 mi North - - N/A   Overcast
5:45 AM 50.0 °F 50.0 °F 100% 30.34 in 0.2 mi North - - N/A   Overcast
6:04 AM 50.0 °F 50.0 °F 100% 30.34 in 0.2 mi North - - N/A   Overcast
6:24 AM 48.2 °F 48.2 °F 100% 30.34 in 0.2 mi North - - N/A   Overcast
6:43 AM 48.2 °F 48.2 °F 100% 30.36 in 0.2 mi North - - N/A   Overcast
7:02 AM 48.2 °F 48.2 °F 100% 30.36 in 0.2 mi North - - N/A   Overcast
7:22 AM 48.2 °F 48.2 °F 100% 30.35 in 0.2 mi North - - N/A   Overcast
7:41 AM 48.2 °F 48.2 °F 100% 30.36 in 0.2 mi North - - N/A   Overcast
8:00 AM 48.2 °F 48.2 °F 100% 30.36 in 0.2 mi North - - N/A   Overcast
8:20 AM 48.2 °F 48.2 °F 100% 30.36 in 0.2 mi North - - N/A   Overcast
8:39 AM 48.2 °F 48.2 °F 100% 30.37 in 0.2 mi North - - N/A   Overcast
8:58 AM 48.2 °F 48.2 °F 100% 30.36 in 0.2 mi North - - N/A   Overcast
9:17 AM 50.0 °F 50.0 °F 100% 30.36 in 0.2 mi North - - N/A   Overcast
9:37 AM 50.0 °F 50.0 °F 100% 30.36 in 0.2 mi North - - N/A   Overcast
10:15 AM 50.0 °F 50.0 °F 100% 30.36 in 0.8 mi North - - N/A   Overcast
10:35 AM 50.0 °F 50.0 °F 100% 30.36 in 4.0 mi North - - N/A   Overcast
10:54 AM 50.0 °F 50.0 °F 100% 30.36 in 5.0 mi North - - N/A   Overcast
11:13 AM 50.0 °F 50.0 °F 100% 30.35 in 7.0 mi North - - N/A   Overcast
11:33 AM 50.0 °F 50.0 °F 100% 30.34 in 7.0 mi North - - N/A   Overcast
11:52 AM 51.8 °F 51.8 °F 100% 30.32 in 10.0 mi North - - N/A   Overcast
12:11 PM 51.8 °F 51.8 °F 100% 30.31 in 10.0 mi North - - N/A   Overcast
12:30 PM 51.8 °F 51.8 °F 100% 30.31 in 10.0 mi North - - N/A   Overcast
12:50 PM 51.8 °F 51.8 °F 100% 30.30 in 10.0 mi North - - N/A   Overcast
1:09 PM 53.6 °F 53.6 °F 100% 30.29 in 10.0 mi North - - N/A   Overcast
1:24 PM 55.4 °F 51.8 °F 88% 30.28 in 10.0 mi North - - N/A   Overcast
1:48 PM 55.4 °F 51.8 °F 88% 30.28 in 10.0 mi North 3.5 mph - N/A   Unknown
2:07 PM 55.4 °F 51.8 °F 88% 30.26 in 10.0 mi North 3.5 mph - N/A   Mostly Cloudy
2:26 PM 57.2 °F 51.8 °F 82% 30.27 in 10.0 mi North 4.6 mph - N/A   Unknown
2:45 PM 55.4 °F 50.0 °F 82% 30.25 in 10.0 mi North 3.5 mph - N/A   Overcast
3:05 PM 55.4 °F 50.0 °F 82% 30.25 in 10.0 mi Calm Calm - N/A   Overcast
3:24 PM 57.2 °F 50.0 °F 77% 30.24 in 10.0 mi North 3.5 mph - N/A   Overcast
3:43 PM 55.4 °F 50.0 °F 82% 30.24 in 10.0 mi Calm Calm - N/A   Overcast
4:03 PM 51.8 °F 50.0 °F 94% 30.24 in 10.0 mi Calm Calm - N/A   Overcast
4:22 PM 51.8 °F 50.0 °F 94% 30.24 in 10.0 mi Calm Calm - N/A   Overcast
4:41 PM 51.8 °F 50.0 °F 94% 30.23 in 10.0 mi Calm Calm - N/A   Overcast
5:01 PM 51.8 °F 50.0 °F 94% 30.24 in 10.0 mi Calm Calm - N/A   Overcast
5:20 PM 51.8 °F 50.0 °F 94% 30.23 in 10.0 mi Calm Calm - N/A   Overcast
5:58 PM 51.8 °F 51.8 °F 100% 30.23 in 10.0 mi Calm Calm - N/A   Overcast
6:18 PM 51.8 °F 51.8 °F 100% 30.23 in 7.0 mi North 3.5 mph - N/A   Overcast
6:37 PM 51.8 °F 51.8 °F 100% 30.23 in 10.0 mi Calm Calm - N/A   Overcast
6:56 PM 51.8 °F 51.8 °F 100% 30.23 in 10.0 mi Calm Calm - N/A   Overcast
7:16 PM 51.8 °F 51.8 °F 100% 30.24 in 10.0 mi North 3.5 mph - N/A   Overcast
7:35 PM 51.8 °F 51.8 °F 100% 30.23 in 10.0 mi North 4.6 mph - N/A   Overcast
7:54 PM 53.6 °F 51.8 °F 94% 30.24 in 10.0 mi North 4.6 mph - N/A   Mostly Cloudy
8:13 PM 53.6 °F 53.6 °F 100% 30.23 in 10.0 mi North 4.6 mph - N/A   Mostly Cloudy
8:33 PM 55.4 °F 55.4 °F 100% 30.23 in 10.0 mi North 5.8 mph - N/A   Overcast
8:52 PM 55.4 °F 55.4 °F 100% 30.22 in 10.0 mi North 8.1 mph - N/A   Overcast
9:11 PM 57.2 °F 57.2 °F 100% 30.22 in 10.0 mi North 8.1 mph - N/A   Overcast
9:31 PM 57.2 °F 55.4 °F 94% 30.21 in 10.0 mi North 10.4 mph - N/A   Overcast
9:50 PM 55.4 °F 55.4 °F 100% 30.21 in 10.0 mi North 9.2 mph - N/A   Overcast
10:09 PM 55.4 °F 55.4 °F 100% 30.20 in 10.0 mi North 10.4 mph - N/A   Overcast
10:29 PM 55.4 °F 55.4 °F 100% 30.20 in 10.0 mi North 6.9 mph - N/A   Overcast
11:07 PM 55.4 °F 55.4 °F 100% 30.18 in 10.0 mi North 8.1 mph - N/A   Overcast
11:27 PM 55.4 °F 55.4 °F 100% 30.18 in 10.0 mi North 6.9 mph - N/A   Overcast
11:46 PM 57.2 °F 55.4 °F 94% 30.18 in 10.0 mi North 9.2 mph 16.1 mph N/A   Overcast